Temp
83 99 104 98 82 85 81 87 96 89 92 100 102 99 96 95 89 82 105 106 104 98 92 88 80 80 80 80 80 79 79 79 79 79 79 79 79 80 80 80 80 81 81 81 81 81 81 81 81
95 99 99 93 79 76 81 94 91 95 98 101 100 99 98 89 98 98 99 104 103 98 92 91 79 80 80 80 79 79 79 79 79 79 79 79 79 80 80 80 81 81 81 81 81 81 81 81 81
90 99 89 85 81 77 83 94 95 98 99 99 98 103 98 89 98 101 104 103 101 97 97 89 79 79 79 79 79 79 79 79 79 79 79 79 80 80 80 80 81 81 81 81 81 81 81 81 81
94 94 91 79 79 86 90 93 98 97 99 102 102 92 94 101 100 103 104 104 100 100 99 82 79 79 79 79 79 79 79 79 79 79 79 79 80 79 79 80 80 81 81 82 81 81 81 81 80
94 90 79 78 81 90 95 97 99 94 98 99 101 92 89 95 104 103 103 103 101 102 99 90 79 79 79 79 79 79 79 79 79 79 79 80 79 79 79 80 80 81 81 81 81 81 80 80 80
84 87 75 74 81 90 96 99 96 96 99 100 98 94 92 100 101 103 104 103 105 101 96 91 80 79 79 79 79 79 78 78 79 79 79 79 79 79 79 80 80 80 80 80 81 80 80 79 79
81 80 75 79 82 86 92 100 95 96 97 96 102 92 92 97 102 103 103 104 104 101 97 91 90 85 79 79 78 78 78 78 78 78 79 79 79 79 79 79 80 80 80 80 80 80 79 79 79
85 83 78 81 79 85 96 97 99 97 94 100 103 90 87 96 101 103 105 105 103 101 99 94 92 92 89 88 79 78 78 78 78 78 78 78 79 79 79 79 79 80 80 80 80 79 79 79 78
90 76 73 79 81 87 98 94 99 102 97 97 100 95 100 98 101 101 101 102 102 101 98 97 97 94 94 93 87 79 79 79 79 80 79 79 90 88 88 85 80 80 79 79 79 79 78 78 78
81 73 76 87 90 87 92 96 96 95 92 93 91 95 97 96 95 96 97 97 98 99 99 100 98 95 97 97 89 89 89 89 88 89 86 89 92 94 93 87 80 79 79 79 78 78 78 79 92
81 74 83 87 91 94 92 90 99 94 90 94 90 89 91 92 91 94 97 98 99 99 100 100 96 94 96 98 93 93 93 93 91 91 90 90 95 93 94 94 91 88 81 90 87 87 87 95 96
75 82 84 88 92 92 92 93 93 95 95 101 100 92 91 90 90 92 93 94 98 96 95 95 94 92 94 98 95 96 97 96 94 93 90 90 90 91 91 95 96 94 94 94 94 95 94 93 92
77 81 84 88 92 89 90 89 91 94 99 98 98 93 89 89 91 94 95 91 95 92 94 94 93 92 92 93 96 97 96 97 97 95 92 93 92 91 92 93 94 95 97 96 94 94 93 93 93
81 81 83 86 89 88 84 87 90 94 99 95 96 92 92 92 92 91 91 90 91 92 92 95 94 91 92 91 93 93 93 95 95 96 95 91 92 91 92 92 92 93 94 95 95 94 93 93 93
81 75 80 83 86 83 87 81 84 94 95 93 92 93 94 94 96 95 95 91 91 92 91 91 91 91 89 90 90 90 92 95 94 95 93 92 90 90 88 91 92 93 93 92 91 90 91 90 92
74 76 69 80 83 84 83 72 86 91 92 91 91 93 93 94 95 96 95 93 92 92 90 90 93 90 88 88 89 92 93 93 94 94 94 91 90 90 89 90 91 93 92 92 91 91 90 90 91
71 64 67 73 82 82 80 76 86 91 90 89 91 92 92 93 94 94 95 94 92 91 90 88 89 90 87 87 88 90 90 90 94 94 95 92 92 92 89 90 91 90 91 91 92 89 88 87 87
61 64 68 70 77 80 77 77 85 86 88 87 91 92 89 91 93 94 95 94 93 92 89 87 88 88 87 88 88 91 92 93 96 95 95 91 92 92 89 90 89 88 87 89 87 84 88 87 87
71 67 68 73 80 77 76 76 83 84 84 76 86 88 87 90 93 93 92 94 91 88 84 84 86 85 85 88 89 90 91 93 94 91 88 88 88 85 81 86 84 83 81 81 81 81 82 85 88
70 67 68 74 80 77 76 75 83 83 83 84 74 85 88 90 92 92 91 92 90 86 85 84 83 83 85 88 90 93 93 93 90 89 86 86 85 82 82 80 81 81 82 81 79 76 74 80 85
67 67 67 69 75 78 75 72 77 81 84 81 78 85 90 91 90 90 88 88 88 86 85 84 85 83 85 88 88 87 86 86 87 85 85 83 84 83 82 82 81 81 84 79 78 77 74 71 77
61 73 73 71 67 61 75 60 72 78 75 77 78 79 87 90 92 91 88 87 87 86 87 86 85 84 85 86 86 84 86 85 86 85 83 82 82 83 82 81 80 79 83 78 79 80 77 78 76
65 74 71 71 68 68 68 65 70 78 75 75 79 83 87 88 89 89 91 88 89 87 85 84 83 82 83 83 86 85 85 82 85 83 79 77 79 81 82 81 79 78 81 78 76 76 74 77 76
74 71 69 71 67 55 65 66 65 72 75 79 84 85 86 87 88 90 91 92 88 89 88 85 83 83 84 85 85 83 81 82 81 81 82 83 83 81 80 81 79 78 77 76 76 75 75 73 74
70 65 54 49 50 50 68 65 70 77 82 83 83 86 87 88 91 91 92 90 88 88 87 85 84 82 83 83 82 81 80 80 77 80 84 83 83 82 76 78 77 78 76 76 75 73 74 74 72
66 65 57 44 48 56 68 60 69 81 85 87 88 88 88 88 90 92 92 91 90 88 86 86 83 82 83 82 81 80 79 83 84 83 83 83 83 81 78 78 77 77 77 76 74 74 75 73 72
66 62 72 62 65 61 64 70 78 83 80 84 85 87 86 88 89 90 93 92 90 87 85 85 83 82 82 81 80 79 82 82 80 78 80 81 80 82 78 78 76 76 76 75 73 74 71 72 71
68 75 59 64 50 47 60 63 65 72 76 79 80 83 86 88 89 90 92 92 90 87 85 85 84 83 82 81 81 81 80 79 79 78 76 76 76 77 76 76 75 75 75 74 72 72 71 69 70
66 64 67 67 64 53 52 60 76 74 77 77 80 83 85 87 89 91 92 94 90 88 87 84 84 82 81 81 81 79 79 79 79 78 77 75 75 75 75 75 74 73 73 72 70 69 69 69 67
72 67 67 58 56 63 60 60 80 79 81 81 82 85 88 89 90 92 93 91 88 87 86 84 83 83 83 82 80 79 79 78 76 75 74 74 73 74 74 74 73 73 72 71 69 68 68 67 65
MSLP
1010.12 1008.46 1007.29 1006.25 1005.00 1002.13 999.40 997.52 996.19 997.42 995.63 996.50 997.15 997.26 997.58 998.87 999.38 1000.90 1002.75 1003.84 1004.99 1006.89 1008.45 1009.50 1010.24 1010.66 1011.03 1011.33 1011.76 1012.16 1012.49 1012.84 1013.05 1013.51 1013.87 1014.11 1014.31 1014.38 1014.60 1014.70 1014.93 1015.02 1015.12 1015.19 1015.29 1015.41 1015.52 1015.50 1015.57
1009.29 1007.90 1006.91 1005.06 1002.98 1000.21 998.18 996.63 995.90 996.02 996.37 997.33 997.88 998.15 998.18 1000.15 1001.02 1002.17 1003.17 1004.23 1005.57 1007.17 1008.57 1009.30 1010.40 1010.83 1011.20 1011.47 1011.90 1012.34 1012.59 1012.96 1013.28 1013.75 1014.13 1014.42 1014.72 1014.84 1015.01 1015.08 1015.21 1015.37 1015.42 1015.42 1015.40 1015.49 1015.67 1015.74 1015.70
1009.56 1007.80 1006.33 1003.88 1001.67 999.37 996.78 995.95 995.92 996.45 997.46 997.59 997.70 998.02 999.06 1001.40 1002.19 1002.53 1003.68 1004.74 1005.99 1007.30 1008.18 1009.40 1010.43 1010.93 1011.39 1011.73 1012.07 1012.44 1012.80 1013.29 1013.65 1013.96 1014.37 1014.69 1015.00 1015.14 1015.21 1015.39 1015.50 1015.57 1015.68 1015.70 1015.71 1015.67 1015.70 1015.80 1015.79
1007.88 1006.88 1005.91 1002.84 1000.09 999.06 997.06 996.01 996.27 996.33 997.33 997.72 997.52 999.12 1001.36 1001.90 1002.16 1003.01 1004.32 1005.09 1006.29 1007.14 1008.05 1009.99 1010.60 1011.15 1011.55 1011.84 1012.20 1012.61 1013.02 1013.48 1013.85 1014.18 1014.62 1015.08 1015.26 1015.37 1015.55 1015.63 1015.71 1015.80 1015.94 1015.89 1015.98 1016.03 1015.95 1015.91 1015.94
1007.42 1005.62 1003.71 1001.75 1000.04 998.24 997.25 996.64 996.61 997.01 996.86 997.58 997.64 999.43 1001.44 1002.86 1002.71 1003.71 1004.42 1005.31 1006.01 1006.91 1008.04 1009.94 1010.91 1011.31 1011.76 1012.15 1012.47 1012.88 1013.27 1013.73 1014.07 1014.50 1014.90 1015.15 1015.32 1015.50 1015.69 1015.85 1015.95 1015.93 1015.97 1016.01 1016.02 1016.04 1016.17 1016.14 1016.01
1006.19 1005.10 1002.54 1000.62 999.39 998.34 996.96 996.88 997.51 997.28 997.14 997.38 998.02 999.50 1001.58 1002.90 1003.23 1003.75 1004.54 1005.23 1005.89 1006.93 1008.45 1009.96 1011.11 1011.60 1011.98 1012.30 1012.75 1013.19 1013.56 1013.98 1014.26 1014.59 1014.99 1015.17 1015.36 1015.53 1015.74 1015.84 1015.90 1016.04 1016.15 1016.15 1016.10 1016.17 1016.25 1016.24 1016.19
1004.86 1003.64 1001.59 1000.25 998.78 997.87 997.14 996.98 997.67 997.59 997.30 997.43 997.72 999.17 1002.06 1002.73 1003.40 1003.87 1004.52 1005.13 1005.94 1007.20 1008.52 1010.00 1010.79 1011.64 1012.26 1012.60 1012.99 1013.40 1013.74 1014.01 1014.21 1014.65 1014.93 1015.13 1015.34 1015.57 1015.77 1015.84 1015.98 1016.13 1016.17 1016.22 1016.28 1016.27 1016.25 1016.21 1016.09
1004.96 1003.50 1001.58 1000.11 998.45 996.81 997.21 997.29 998.12 997.82 997.71 998.58 997.92 997.53 1001.38 1002.53 1003.52 1003.97 1004.40 1005.06 1005.97 1007.22 1008.28 1009.53 1010.43 1011.20 1011.92 1012.55 1013.31 1013.56 1013.81 1014.13 1014.40 1014.74 1015.01 1015.33 1015.52 1015.63 1015.72 1015.79 1015.80 1015.97 1016.05 1016.10 1016.15 1016.12 1016.15 1016.00 1015.84
1005.03 1003.33 1000.72 999.29 998.34 996.97 996.76 997.22 997.99 998.33 998.31 999.16 999.20 999.95 1000.26 1002.83 1003.62 1003.94 1004.31 1004.96 1005.72 1006.77 1008.02 1008.93 1009.76 1010.64 1011.10 1011.90 1013.04 1013.73 1014.05 1014.33 1014.58 1014.85 1015.11 1015.21 1014.75 1014.91 1015.00 1014.99 1015.46 1015.70 1015.79 1015.86 1015.85 1015.81 1015.67 1015.54 1015.17
1003.72 1002.13 999.98 999.54 998.50 997.66 996.79 996.75 997.66 998.42 999.34 999.29 1000.65 1001.35 1002.00 1003.13 1003.68 1003.81 1004.06 1004.67 1005.49 1006.28 1007.48 1008.33 1009.17 1010.00 1010.45 1011.11 1012.48 1013.04 1013.39 1013.67 1013.99 1014.13 1014.53 1014.49 1013.95 1013.74 1014.00 1014.36 1015.04 1015.25 1015.31 1015.31 1015.23 1015.12 1015.03 1014.97 1013.96
1002.79 1000.93 1000.95 999.84 999.01 998.10 997.63 997.84 997.20 997.89 998.45 998.82 1000.24 1001.90 1002.79 1003.53 1004.12 1004.02 1004.18 1004.58 1005.45 1006.24 1007.15 1007.95 1008.94 1009.75 1010.01 1010.43 1011.83 1012.21 1012.57 1012.85 1013.36 1013.50 1013.79 1013.90 1013.27 1013.73 1013.78 1013.77 1014.07 1014.37 1014.69 1014.33 1014.06 1014.20 1014.22 1012.95 1012.79
1002.46 1001.79 1000.95 1000.09 999.24 998.55 997.28 998.34 997.37 997.47 998.00 998.21 999.20 1001.92 1002.86 1003.45 1003.90 1004.34 1004.73 1004.60 1005.54 1006.63 1007.37 1008.38 1009.33 1009.92 1010.13 1010.13 1011.15 1011.32 1011.36 1011.89 1012.35 1012.96 1013.60 1013.54 1013.79 1013.53 1013.67 1012.97 1012.82 1013.18 1013.35 1013.09 1013.32 1012.94 1012.75 1013.04 1013.05
1001.97 1001.26 1001.37 1000.28 999.06 999.29 999.09 998.33 997.83 997.55 998.28 999.23 998.95 1001.48 1002.72 1003.36 1003.88 1004.22 1004.69 1005.21 1006.14 1007.02 1007.81 1008.53 1009.21 1009.80 1010.33 1010.53 1010.66 1010.69 1011.02 1011.37 1011.55 1012.20 1013.07 1013.30 1013.17 1013.20 1013.18 1013.09 1013.13 1012.84 1012.56 1012.59 1012.79 1012.76 1012.62 1012.51 1012.38
1001.81 1001.77 1000.78 1000.66 999.32 999.82 999.96 999.31 998.84 997.95 998.52 999.62 999.78 1001.38 1002.34 1002.85 1003.35 1004.22 1005.12 1005.38 1006.40 1007.18 1007.68 1008.37 1009.31 1010.25 1010.77 1010.98 1010.90 1011.15 1011.27 1011.13 1011.83 1011.86 1012.25 1013.26 1013.07 1013.06 1012.94 1013.08 1013.07 1012.81 1012.72 1012.46 1012.31 1012.26 1012.33 1012.12 1011.84
1001.84 1001.40 1001.00 1000.27 999.65 1000.14 1000.37 999.35 998.83 998.58 998.90 999.62 1000.31 1001.14 1001.80 1002.40 1002.76 1003.07 1004.52 1005.36 1006.61 1007.25 1007.78 1008.55 1009.39 1010.30 1010.84 1011.14 1011.45 1011.76 1011.79 1011.54 1011.75 1011.89 1012.44 1012.94 1013.05 1013.01 1013.21 1012.96 1012.81 1012.54 1012.53 1012.72 1012.71 1012.63 1012.47 1012.43 1011.86
1001.59 1001.02 1000.33 999.79 999.97 1000.27 1000.54 999.14 998.96 999.26 999.23 999.48 1000.25 1000.74 1001.50 1002.15 1002.79 1003.52 1004.43 1005.57 1006.47 1007.12 1007.98 1008.85 1009.43 1010.23 1010.92 1011.12 1011.49 1011.48 1011.42 1011.62 1011.65 1011.86 1012.12 1012.78 1012.99 1012.97 1013.07 1012.94 1012.65 1012.41 1012.44 1012.49 1012.44 1012.19 1012.00 1011.73 1011.27
1000.88 999.73 999.85 999.36 1000.05 999.93 1000.01 998.72 998.97 999.31 999.20 999.25 999.91 1000.53 1001.49 1002.09 1002.81 1003.79 1004.67 1005.49 1006.52 1007.19 1008.00 1008.98 1009.55 1009.94 1010.90 1011.38 1011.56 1011.56 1011.73 1011.90 1011.54 1011.67 1011.82 1012.19 1012.51 1012.61 1012.90 1012.77 1012.45 1012.50 1012.54 1012.31 1012.02 1012.22 1012.16 1011.63 1011.38
999.72 999.69 999.70 998.65 999.68 999.80 999.59 999.24 998.71 999.82 999.35 999.13 999.41 1000.04 1001.15 1001.73 1002.51 1003.66 1004.37 1005.46 1006.37 1007.14 1007.86 1008.70 1009.76 1009.92 1010.88 1011.29 1011.31 1011.21 1011.18 1011.26 1010.97 1011.35 1011.37 1012.16 1012.34 1012.42 1012.68 1012.43 1012.51 1012.65 1012.78 1012.38 1012.13 1012.27 1012.04 1011.84 1011.50
999.34 999.89 998.82 998.83 998.60 999.42 998.98 999.46 998.45 999.61 999.86 999.85 999.46 1000.05 1000.97 1001.37 1002.90 1004.15 1004.79 1005.19 1006.47 1007.69 1008.29 1008.43 1009.41 1010.49 1010.88 1010.62 1010.62 1010.44 1010.41 1010.40 1010.82 1011.63 1012.40 1012.86 1012.92 1013.31 1013.50 1013.03 1012.87 1012.98 1013.07 1013.14 1013.21 1013.05 1012.41 1011.82 1011.17
998.86 998.84 998.23 998.64 997.91 999.16 998.98 998.98 998.50 999.51 1000.03 999.88 1001.27 998.76 999.31 1000.41 1002.62 1003.95 1004.82 1005.49 1006.20 1007.58 1008.43 1008.69 1009.58 1010.58 1010.59 1010.41 1010.01 1010.06 1010.11 1010.51 1011.66 1012.32 1012.93 1013.20 1013.41 1013.63 1013.53 1013.69 1013.55 1013.67 1013.58 1013.36 1013.60 1013.71 1013.51 1012.63 1011.75
998.93 998.11 998.17 997.80 997.93 998.80 999.16 998.80 998.63 999.17 1000.13 1000.61 1001.15 999.05 999.33 1000.62 1002.30 1003.60 1004.81 1005.70 1006.44 1007.20 1008.12 1008.94 1009.57 1010.28 1010.43 1010.13 1010.55 1010.84 1011.35 1011.74 1012.01 1012.65 1013.25 1013.84 1013.77 1013.82 1013.83 1013.84 1014.04 1013.93 1013.53 1013.81 1013.95 1013.95 1013.92 1013.44 1012.79
998.84 998.34 998.10 997.58 998.34 997.99 998.81 998.00 998.48 998.86 1000.64 1001.19 1001.55 1001.98 1000.40 1001.06 1002.22 1003.23 1004.52 1005.71 1006.50 1007.32 1008.07 1008.78 1009.34 1010.04 1010.34 1010.53 1010.42 1010.68 1010.70 1011.05 1011.77 1012.51 1013.67 1014.09 1014.07 1014.10 1014.21 1014.39 1014.45 1014.51 1014.21 1014.60 1014.33 1014.25 1014.07 1013.37 1012.60
999.10 998.88 998.37 998.24 998.54 998.32 998.65 997.72 997.46 998.52 998.83 1000.27 1001.32 1001.79 1001.74 1001.94 1002.63 1003.19 1004.05 1005.52 1006.09 1007.19 1008.04 1008.76 1009.48 1009.94 1010.06 1010.65 1010.49 1010.72 1010.76 1011.82 1012.32 1013.28 1013.93 1014.41 1014.61 1014.52 1014.55 1014.73 1014.87 1015.00 1014.65 1014.87 1014.83 1014.73 1014.62 1013.95 1013.40
999.34 999.07 999.21 998.64 998.51 998.05 997.73 997.54 996.51 997.19 998.22 998.88 999.59 1000.36 1001.27 1001.95 1002.86 1003.26 1003.95 1004.66 1006.04 1006.64 1007.89 1008.60 1009.29 1009.65 1010.05 1010.41 1010.66 1010.81 1011.55 1011.90 1012.72 1013.24 1013.43 1013.49 1014.08 1014.68 1014.83 1014.83 1015.04 1015.10 1015.26 1015.17 1015.02 1014.98 1014.54 1014.32 1013.83
999.91 999.12 998.83 998.82 998.52 998.57 997.70 997.35 995.80 996.86 997.04 997.91 998.88 999.58 1000.40 1001.11 1001.84 1002.55 1003.35 1004.96 1005.85 1006.58 1007.58 1008.34 1008.90 1009.52 1010.05 1010.67 1011.30 1011.71 1012.16 1012.58 1013.09 1013.14 1013.10 1013.39 1013.77 1014.19 1015.13 1015.13 1015.32 1015.26 1015.24 1015.14 1015.16 1015.04 1014.44 1014.10 1014.00
998.93 998.77 997.76 998.02 998.26 997.92 997.50 996.54 996.31 996.51 996.48 997.26 998.29 999.34 1000.11 1001.21 1001.51 1002.08 1002.77 1004.23 1005.66 1006.53 1007.26 1007.88 1008.78 1009.69 1010.42 1011.01 1011.56 1012.14 1012.64 1012.70 1012.98 1013.17 1013.47 1013.65 1013.92 1014.54 1015.18 1015.25 1015.29 1015.32 1015.15 1015.08 1015.08 1014.95 1014.49 1014.37 1014.16
998.17 998.06 997.31 997.63 997.79 996.86 996.40 996.60 996.51 996.46 997.64 997.45 998.09 998.95 999.78 1000.55 1001.16 1001.78 1002.33 1003.23 1004.93 1006.36 1007.07 1007.90 1008.98 1009.90 1010.61 1011.31 1011.92 1012.49 1012.46 1012.68 1013.37 1014.10 1014.09 1014.16 1014.60 1014.63 1015.13 1015.31 1015.37 1015.36 1015.21 1015.11 1015.10 1014.78 1014.70 1014.29 1014.03
998.21 997.25 998.07 997.23 996.26 996.16 996.17 996.06 996.39 996.89 997.32 998.47 998.82 998.98 999.52 1000.22 1001.00 1001.89 1002.22 1002.80 1004.29 1006.28 1007.66 1008.33 1009.21 1009.92 1010.73 1011.44 1012.12 1012.56 1013.06 1013.47 1014.00 1014.29 1014.52 1014.84 1015.24 1015.39 1015.44 1015.47 1015.47 1015.44 1015.23 1015.05 1014.96 1014.77 1014.55 1014.33 1013.92
998.50 998.05 997.20 996.18 995.63 995.70 995.63 996.16 996.68 997.31 997.98 998.89 999.42 999.84 1000.26 1000.68 1001.04 1001.62 1002.06 1002.54 1004.28 1006.10 1007.67 1008.71 1009.28 1010.12 1010.90 1011.48 1012.12 1012.86 1013.29 1013.78 1014.05 1014.30 1014.63 1015.12 1015.40 1015.53 1015.63 1015.56 1015.49 1015.33 1015.19 1014.95 1014.91 1014.80 1014.42 1013.84 1013.71
998.09 997.80 997.43 996.99 996.78 996.83 996.62 996.71 997.01 997.48 998.14 998.71 999.15 999.58 999.83 1000.25 1000.69 1001.32 1001.86 1002.76 1004.48 1006.24 1007.50 1008.89 1009.57 1010.22 1010.94 1011.75 1012.47 1013.10 1013.55 1014.02 1014.27 1014.58 1015.00 1015.36 1015.50 1015.61 1015.60 1015.55 1015.37 1015.25 1015.10 1014.96 1014.79 1014.46 1014.27 1013.93 1013.58
Wind_Speed
17 16 10 9 9 10 17 21 3 17 3 6 7 1 14 20 17 9 18 15 23 21 19 17 14 14 15 16 16 16 16 15 15 13 12 11 10 11 10 10 9 9 9 8 8 7 5 5 4
13 13 10 10 13 15 15 22 11 9 9 8 3 5 9 16 14 17 16 21 22 20 18 18 15 15 15 16 17 16 16 15 15 13 12 11 9 9 9 9 8 7 7 7 7 6 4 3 3
15 15 9 12 16 18 18 22 12 8 3 8 9 2 10 8 12 14 20 22 22 20 19 17 16 15 15 16 17 16 15 14 14 14 12 10 9 9 8 7 7 6 5 5 5 5 3 2 1
9 10 9 17 23 25 28 3 11 10 7 8 9 14 10 7 9 12 21 22 21 20 19 19 15 14 14 16 16 16 15 15 14 13 11 10 9 8 7 6 5 5 4 4 3 3 2 2 1
10 10 13 19 25 24 25 4 9 9 9 12 10 13 12 7 11 21 21 20 20 19 19 18 14 14 14 16 15 15 15 14 13 12 11 10 9 8 6 5 4 4 4 3 3 3 2 2 3
12 14 15 22 26 26 20 14 3 12 11 12 13 15 10 11 18 20 20 20 19 18 19 18 14 12 13 14 13 12 13 12 12 12 10 10 9 8 7 5 4 3 2 2 3 3 3 4 5
21 18 24 26 26 26 26 11 11 14 10 10 10 17 12 15 18 19 20 19 19 19 19 16 16 13 10 11 12 11 12 12 13 11 11 10 9 7 6 5 4 3 3 2 3 4 5 6 7
18 18 28 25 24 27 25 16 17 17 5 4 2 18 16 17 19 19 19 19 19 19 19 18 16 15 13 12 9 10 11 11 11 10 9 7 7 7 7 6 9 7 5 4 5 5 7 8 9
24 19 22 31 34 28 23 21 16 13 5 6 6 8 25 20 20 20 19 19 18 17 18 18 17 16 14 14 12 9 10 9 9 9 8 9 9 11 11 9 11 7 6 7 8 9 9 10 13
24 23 33 27 28 27 24 23 19 15 14 10 7 4 21 21 19 21 20 19 20 19 19 18 17 16 14 12 13 12 12 10 10 10 11 9 9 6 4 4 10 9 10 11 13 13 13 12 11
30 28 26 28 25 27 27 30 24 21 20 15 16 15 20 21 19 18 19 18 18 18 14 17 13 12 11 11 10 7 7 7 7 10 9 9 5 6 6 5 7 7 13 9 13 12 10 11 6
27 31 27 27 27 17 28 24 21 23 17 12 21 20 20 22 20 21 18 19 18 14 13 15 14 12 11 8 8 10 8 8 7 8 8 6 5 4 5 5 5 4 5 7 6 6 6 6 9
32 26 29 28 26 13 15 23 16 22 16 2 14 21 20 19 18 18 17 10 14 17 16 16 13 11 9 6 7 6 6 6 7 7 9 8 7 4 4 4 5 6 5 5 6 7 6 7 9
24 29 25 31 26 16 19 26 22 15 16 9 12 17 20 21 23 21 15 14 15 13 15 14 13 11 10 8 4 4 4 6 4 5 6 8 6 4 5 5 7 7 6 6 6 6 7 7 8
28 27 30 29 23 17 22 21 26 21 10 14 15 17 18 19 20 19 19 17 13 13 13 13 13 12 10 9 5 4 7 5 6 5 4 7 7 6 6 6 5 6 5 6 7 7 7 9 9
29 28 27 26 25 23 22 26 19 22 19 20 18 16 18 18 16 16 15 14 13 14 14 12 11 14 11 9 8 5 4 5 4 4 5 7 7 6 5 7 6 6 5 6 7 8 8 9 10
22 22 30 29 28 22 23 22 21 15 18 20 19 19 16 17 17 15 15 15 15 13 13 12 11 13 11 9 7 7 6 5 5 5 6 7 6 6 6 7 6 5 7 8 8 7 9 8 8
29 32 30 27 32 30 23 23 22 13 19 20 22 21 18 20 20 16 15 12 11 12 14 14 9 10 11 9 7 7 7 6 5 5 2 3 5 3 5 7 6 6 7 9 7 8 9 10 10
26 29 29 29 25 30 26 24 22 21 15 5 20 19 17 22 15 14 8 12 16 11 7 13 13 10 9 8 9 8 8 6 5 8 6 3 6 8 6 7 6 6 6 8 9 10 11 11 11
28 31 29 29 25 29 27 26 23 21 20 14 10 20 20 11 18 14 12 11 12 15 12 13 13 12 8 7 5 4 2 6 6 4 4 4 3 4 3 2 3 6 7 6 7 9 8 11 11
25 28 30 27 25 27 25 22 26 25 15 14 11 15 20 18 16 14 12 11 12 13 14 12 12 13 9 8 6 4 5 4 5 6 6 6 7 8 9 9 8 8 6 8 7 5 6 6 10
23 21 28 23 21 14 26 16 27 20 24 19 20 7 8 15 14 15 14 12 12 12 12 13 12 11 9 9 8 8 7 7 7 7 7 7 8 9 9 9 8 7 6 7 7 8 9 9 10
15 23 20 20 24 21 26 21 25 23 24 32 23 20 15 11 8 5 13 13 13 13 12 12 10 10 9 8 8 8 7 9 7 8 8 8 6 7 8 7 7 7 6 6 8 8 9 9 10
9 19 13 16 16 15 23 24 19 24 22 24 27 29 24 15 8 13 10 14 12 12 13 12 13 11 12 10 9 8 10 9 9 8 7 6 7 6 6 6 6 5 7 8 8 8 10 8 8
16 19 13 12 11 11 22 21 17 31 29 25 23 20 20 16 20 16 16 11 11 14 14 13 14 13 13 12 12 13 11 10 10 8 5 5 4 5 5 5 5 5 6 7 8 9 9 8 9
24 23 13 19 13 16 20 15 22 5 26 24 22 21 18 19 16 16 16 16 15 14 16 15 15 15 14 15 14 12 13 8 7 5 5 5 4 5 3 3 5 6 7 7 8 9 8 9 9
21 25 20 19 21 17 16 19 11 16 9 15 23 23 22 20 18 14 15 15 15 12 14 16 16 16 16 15 12 11 8 7 10 7 4 4 4 3 6 5 6 7 8 8 8 8 10 9 9
18 17 5 11 19 12 11 17 11 12 19 13 10 13 11 11 11 15 14 14 17 14 13 15 16 17 16 14 11 10 9 9 8 6 6 6 5 5 6 7 8 9 10 10 9 9 11 11 11
15 13 11 11 5 15 11 14 14 18 13 16 15 16 16 18 18 18 16 14 18 16 16 15 16 17 15 13 11 11 9 8 6 6 5 5 4 6 7 9 10 11 12 12 10 11 14 14 14
16 20 13 6 7 2 1 5 8 17 17 17 17 16 13 11 12 14 15 18 16 16 17 15 16 16 13 12 11 9 7 7 6 5 5 5 5 6 8 10 11 12 14 13 14 16 16 16 16
Wind_Direction
275 255 265 257 240 234 245 239 140 219 130 64 83 240 55 37 22 65 124 139 128 131 137 143 134 138 137 135 133 132 129 135 137 141 141 143 144 134 129 123 123 126 127 121 117 115 115 110 93
289 279 254 264 236 241 226 250 184 254 86 121 151 130 113 62 73 121 134 133 131 136 146 144 141 143 143 138 132 134 136 139 137 139 143 144 141 129 124 120 123 127 134 134 130 131 130 119 98
259 258 265 228 235 242 245 217 151 138 120 213 173 186 77 95 115 138 122 137 133 142 154 139 146 143 143 137 138 141 139 138 142 142 145 144 136 126 124 123 127 134 143 144 144 145 149 142 126
238 223 243 262 236 230 252 42 236 124 206 215 153 99 88 83 123 118 143 138 142 149 147 138 141 140 145 145 145 144 143 145 145 143 140 138 133 126 127 133 132 137 149 154 157 174 201 210 270
228 251 229 229 238 240 231 156 163 194 197 187 162 134 109 129 109 139 146 144 152 149 139 148 140 143 148 152 151 150 145 144 141 136 138 143 140 140 142 138 130 142 160 169 185 212 238 262 272
216 231 230 232 220 238 244 177 227 222 206 197 192 131 111 135 137 148 149 154 150 143 135 143 141 144 150 153 150 147 144 143 139 139 142 147 151 153 157 155 154 163 179 206 222 240 271 279 287
227 214 229 238 231 215 234 174 208 237 196 198 193 140 124 156 146 152 154 155 144 141 150 153 160 156 151 148 145 149 149 149 148 149 155 158 160 160 174 173 175 193 201 226 260 270 272 276 277
228 244 233 236 242 224 216 190 219 235 169 28 249 123 158 146 154 155 159 155 150 151 148 157 161 166 167 159 148 152 156 155 152 157 160 159 163 179 195 203 201 197 214 235 253 263 272 271 269
218 236 236 227 230 237 210 205 197 230 283 217 188 4 143 145 159 163 161 161 157 161 152 160 164 165 173 159 158 157 160 154 151 162 172 174 210 187 194 199 147 192 220 240 245 250 252 254 253
218 226 229 235 236 233 252 198 196 212 213 177 168 114 133 156 167 171 170 168 165 165 163 159 167 164 177 163 153 180 172 179 186 187 177 218 222 204 281 125 167 202 221 232 233 230 232 241 258
217 226 229 239 247 246 231 271 194 207 221 197 173 157 153 165 177 177 178 169 169 164 167 157 162 158 184 166 159 183 180 187 191 198 182 217 214 200 207 216 201 214 210 238 210 220 224 245 312
221 228 236 234 236 243 232 224 245 219 210 236 161 158 166 170 175 175 182 167 167 159 164 153 166 166 204 167 171 189 190 186 188 195 194 234 217 213 269 267 265 199 218 247 271 262 260 284 267
224 222 227 242 238 221 255 223 240 226 213 192 150 155 172 172 177 177 175 155 162 170 171 169 165 167 187 203 184 202 207 179 189 169 185 230 230 222 244 251 267 287 291 261 246 256 255 266 266
219 225 222 232 240 205 221 236 237 219 207 191 172 171 177 178 177 169 176 162 176 171 167 168 164 162 178 207 188 192 203 143 233 185 194 211 234 222 260 228 246 250 256 263 265 255 269 268 279
230 220 234 216 230 203 221 225 222 231 164 195 173 183 179 174 177 163 166 157 171 174 157 164 174 161 180 194 179 192 176 216 194 208 193 217 211 223 269 268 264 259 256 269 273 273 253 256 252
221 223 216 209 218 206 197 221 198 234 185 199 183 178 173 167 166 158 155 161 163 164 161 166 180 164 176 179 178 192 172 212 194 216 199 214 230 242 252 252 260 268 261 268 269 270 287 286 288
209 211 213 200 207 204 203 226 186 185 212 195 185 173 177 171 164 157 159 157 159 161 162 166 186 160 172 169 174 198 184 226 220 203 210 179 232 240 243 267 276 273 271 270 274 282 274 277 271
199 218 198 210 191 218 200 227 162 185 218 198 186 170 182 171 166 156 160 160 151 161 157 159 170 160 176 166 198 188 189 203 210 190 159 80 250 258 259 258 257 287 301 295 309 315 293 298 300
197 204 207 212 188 205 207 213 209 178 208 235 179 179 182 163 164 161 179 157 150 155 140 148 162 156 180 171 186 174 176 159 158 73 53 352 4 357 345 305 338 301 303 308 318 318 300 295 286
204 197 218 197 195 198 208 204 208 190 189 201 250 182 161 161 154 160 152 166 170 155 162 153 157 174 186 186 202 181 198 98 59 87 57 37 65 46 46 13 322 3 321 308 349 348 326 307 308
223 199 217 194 209 187 210 206 221 170 202 187 280 277 161 167 154 153 147 156 161 170 170 171 174 172 197 162 152 150 91 123 159 139 100 72 69 63 51 44 32 355 349 21 4 359 340 318 311
211 228 206 213 163 192 208 199 207 192 183 169 186 237 234 167 173 156 150 153 156 158 164 167 170 172 179 183 166 171 167 164 98 97 87 90 71 64 61 50 40 25 11 16 2 358 335 332 312
223 205 220 217 182 192 200 226 186 199 188 185 198 205 236 162 181 153 146 163 160 153 158 157 156 175 153 184 181 178 123 122 124 110 109 91 81 75 73 61 47 27 13 12 341 346 331 320 329
253 198 199 206 202 214 192 216 196 189 200 202 201 200 198 202 204 213 183 137 144 161 158 157 165 162 162 163 151 114 133 126 129 145 156 135 126 110 60 60 27 30 359 1 342 340 318 323 316
216 184 188 196 198 213 202 198 243 190 194 197 199 198 193 198 199 191 153 159 169 159 157 159 152 148 143 139 129 129 127 115 125 168 106 130 117 89 79 36 26 4 356 349 344 333 305 338 335
193 188 190 183 198 198 176 198 216 198 191 196 192 197 186 200 214 211 173 171 173 166 159 150 146 141 141 136 132 131 135 148 140 101 121 75 79 70 58 16 358 348 344 342 338 323 347 314 320
201 190 195 187 199 206 193 203 217 201 160 196 206 202 201 207 205 215 223 172 164 162 156 147 147 143 140 133 131 148 154 126 94 109 169 90 43 359 49 345 333 327 323 328 326 312 309 314 310
233 205 170 225 194 200 190 171 202 189 175 180 221 225 217 196 194 220 232 198 154 155 156 149 150 145 140 140 142 138 123 123 127 116 79 57 27 358 337 325 325 318 318 319 320 312 312 315 291
206 226 232 248 219 192 168 189 210 172 192 180 194 193 206 219 216 216 220 197 146 156 163 157 151 146 146 151 135 142 130 128 116 98 67 46 2 346 326 326 318 315 313 317 319 306 298 306 312
214 207 219 200 180 225 166 65 115 165 181 196 192 202 201 210 203 215 203 149 148 162 151 161 151 150 145 139 140 134 125 111 88 67 47 11 344 330 320 312 313 311 311 316 312 308 309 308 308